Regional Weather Roundup
Issued by NWS

Home | Current Version | Previous Version | Text Only | Print | Product List | Glossary Off
Versions: 1 2 3 4 5 6 7 8 9 10 11 12 13 14 15 16 17 18 19 20 21 22 23 24 25 26 27 28 29 30 31 32 33 34 35 36 37 38 39 40 41 42 43 44 45 46 47 48 49 50

000
ASUS43 KMPX 251510
RWRMN
WEATHER ROUNDUP FOR MINNESOTA
NATIONAL WEATHER SERVICE TWIN CITIES/CHANHASSEN MN
1000 AM CDT THU MAY 25 2017


NOTE: "FAIR" INDICATES FEW OR NO CLOUDS BELOW 12,000 FEET WITH NO
SIGNIFICANT WEATHER AND/OR OBSTRUCTIONS TO VISIBILITY. N/A MEANS
CURRENT SKY AND/OR WEATHER CONDITIONS ARE NOT AVAILABLE.

MNZ060>063-068>070-251600-
   Twin Cities Metro

CITY           SKY/WX    TMP DP  RH WIND       PRES   REMARKS
TWIN CITIES    MOSUNNY   62  50  64 SE12      29.70F
ST PAUL        SUNNY     61  52  72 SE10      29.70F
CRYSTAL        MOSUNNY   61  48  62 SE9       29.68F
LAKEVILLE      MOSUNNY   59  52  77 SE8       29.70F
EDEN PRAIRIE   MOSUNNY   62  51  67 SE12      29.68F
SOUTH ST PAUL  SUNNY     59  50  71 SE5       29.70F
LAKE ELMO      PTSUNNY   61  52  72 CALM      29.71F
$$
MNZ001>005-007-008-013>017-022>024-027-028-251600-
   Northwest Minnesota

CITY           SKY/WX    TMP DP  RH WIND       PRES   REMARKS
BEMIDJI        PTSUNNY   57  46  66 SE14      29.63R
HALLOCK        CLOUDY    59  45  58 S25       29.56R
ROSEAU         MOSUNNY   63  48  59 S21G28    29.61S
WARROAD        MOSUNNY   61  48  63 SE16G26   29.62F
THIEF RVR FALL CLOUDY    58  46  64 SE16      29.61S
CROOKSTON      MOSUNNY   61  46  59 S21       29.57F
FOSSTON        MOSUNNY   55  45  67 SE18      29.61S
DETROIT LAKES  MOSUNNY   59  46  63 S18       29.61S
MOORHEAD       MOSUNNY   61  46  59 S29G37    29.56S
PARK RAPIDS    LGT RAIN  60  44  55 SE20G26   29.63R
MAHNOMEN       FAIR      56  46  69 SE14      29.60S
$$
MNZ006-009>011-018-025>026-251600-
   North Central Minnesota

CITY           SKY/WX    TMP DP  RH WIND       PRES   REMARKS
BAUDETTE       MOSUNNY   60  46  59 SE15G23   29.64F
FLAG ISLAND    MOSUNNY   55  45  67 SE8       29.63F
INTL FALLS     CLOUDY    59  44  57 SE10G18   29.69F
WASKISH        MOSUNNY   61  46  59 SE13      29.63F
BIG FORK       MOSUNNY   61  46  59 SE13G21   29.68F
LONGVILLE      PTSUNNY   57  46  67 SE12G18   29.65F
GRAND RAPIDS   CLOUDY    56  46  69 SE12G20   29.69F
CRANE LAKE     SUNNY     59  45  58 E3        29.73F
ORR            SUNNY     59  43  55 S12       29.68F
COOK           MOSUNNY   57  45  62 SE9       29.71F
WALKER         FAIR      56  46  69 SE12G18   29.64S
$$
MNZ012-019>021-037-251600-
   Northeast Minnesota

CITY           SKY/WX    TMP DP  RH WIND       PRES   REMARKS
DULUTH         CLOUDY    52  45  77 E12       29.73F
ELY            MOSUNNY   55  43  62 SE9       29.74F
HIBBING        CLOUDY    55  44  66 S9        29.71F
EVELETH        MOSUNNY   58  41  54 SE10G17   29.73F
DULUTH HARBOR  CLOUDY    45  43  93 NE6       29.76F
TWO HARBORS    CLOUDY    57  48  72 E9        29.74F
SILVER BAY     CLOUDY    55  46  71 E8        29.75S
GRAND MARAIS     N/A     46  41  82 CALM      29.78S
G MARAIS ARPRT PTSUNNY   57  39  51 E8        29.78F
$$
MNZ029>031-032-039>041-046>048-054>057-064-251600-
   West Central Minnesota

CITY           SKY/WX    TMP DP  RH WIND       PRES   REMARKS
FERGUS FALLS   MOSUNNY   57  46  67 S23G31    29.57F
WHEATON        SUNNY     61  48  63 SE23G35   29.56F
MORRIS         SUNNY     61  52  72 SE24G30   29.58F
ALEXANDRIA     MOSUNNY   57  47  69 S17G25    29.64S
ELBOW LAKE     FAIR      56  48  73 SE20G29   29.59F
WADENA         MOSUNNY   57  46  67 SE18G24   29.63S
GLENWOOD       MOSUNNY   59  48  67 S20G25    29.64F
APPLETON       SUNNY     63  48  59 SE18G26   29.58F
BENSON         MOSUNNY   61  48  63 S16G25    29.62F
ORTONVILLE     SUNNY     59  48  67 SE15G29   29.55F
MADISON        SUNNY     63  54  72 SE23      29.57F
WILLMAR        FAIR      61  50  67 SE15      29.65S
$$
MNZ033>034-036-042>043-049>051-058-059-251600-
   Central Minnesota

CITY           SKY/WX    TMP DP  RH WIND       PRES   REMARKS
ST CLOUD       MOSUNNY   59  50  72 SE18G25   29.65F
SAUK CENTRE    FAIR      57  49  73 SE13      29.66R
PAYNESVILLE    MOSUNNY   59  48  67 SE9       29.67R
AITKIN         MOSUNNY   59  46  63 SE14      29.66F
PINE RIVER     PTSUNNY   57  48  72 SE14      29.68F
BRAINERD       MOSUNNY   58  49  72 E9G17     29.65F
STAPLES        MOSUNNY   57  46  67 SE13G20   29.64R
LONG PRAIRIE   FAIR      55  46  71 E12       29.66S
LITTLE FALLS   PTSUNNY   57  46  67 SE13G21   29.65S
LITCHFIELD     MOSUNNY   61  52  72 SE9G16    29.67R
BUFFALO        MOSUNNY   60  49  67 SE12      29.67F
MAPLE LAKE     SUNNY     60  52  74 SE10G17   29.67F
HUTCHINSON     CLOUDY    61  53  76 SE12G21   29.67S
$$
MNZ037-044-045-052-053-251600-
   East Central Minnesota

CITY           SKY/WX    TMP DP  RH WIND       PRES   REMARKS
PRINCETON      PTSUNNY   61  52  72 E12       29.67F
MORA           MOSUNNY   55  46  71 E10       29.71F
CAMBRIDGE      MOSUNNY   63  48  59 SE9       29.67F
RUSH CITY      CLOUDY    60  50  69 SE8       29.71F
MOOSE LAKE     PTSUNNY   54  45  71 E6        29.70F
HINCKLEY       FAIR      59  50  72 E7        29.71F
CLOQUET        PTSUNNY   52  43  71 E7        29.73F
MCGREGOR       SUNNY     57  46  67 SE14      29.70F
$$
MNZ071>073-080-081-089-090-097-098-251600-
   Southwest Minnesota

CITY           SKY/WX    TMP DP  RH WIND       PRES   REMARKS
MONTEVIDEO     CLOUDY    61  52  72 S13G25    29.60F
CANBY          SUNNY     62  50  63 S20G32    29.58F
REDWOOD FALLS  SUNNY     63  49  60 S22       29.63F
OLIVIA         MOSUNNY   61  48  63 S15G23    29.64S
PIPESTONE      MOSUNNY   59  46  63 S23G30    29.58F
WINDOM         SUNNY     61  46  59 S16G25    29.65F
WORTHINGTON    LGT RAIN  58  48  69 S18G25    29.64F
JACKSON        SUNNY     59  48  67 S17       29.67F
TRACY          SUNNY     60  51  71 S17G28    29.61F
SLAYTON        MOSUNNY   56  49  76 SE28      29.60F
$$
MNZ065>067-074>077-082>085-091>093-251600-
   South Central Minnesota

CITY           SKY/WX    TMP DP  RH WIND       PRES   REMARKS
MANKATO        MOSUNNY   60  51  72 S15       29.68F
NEW ULM        MOSUNNY   61  52  72 S15       29.67S
ST JAMES       SUNNY     61  52  72 SE16      29.68F
FAIRMONT       MOSUNNY   60  50  69 S17       29.68F
GLENCOE        MOSUNNY   61  55  81 SE12      29.67S
FARIBAULT      SUNNY     59  52  77 SE7       29.71F
OWATONNA       SUNNY     61  50  67 E8        29.70F
WASECA         MOSUNNY   59  52  77 SE10      29.71F
ALBERT LEA     SUNNY     59  54  82 E9        29.69F
$$
MNZ078>079-086>088-094>096-251600-
   Southeast Minnesota

CITY           SKY/WX    TMP DP  RH WIND       PRES   REMARKS
ROCHESTER      MOSUNNY   60  52  74 SE6       29.73F
RED WING       SUNNY     61  48  63 SE5       29.71F
STANTON        SUNNY     60  49  67 SE7       29.70F
DODGE CENTER   SUNNY     57  50  77 SE5       29.72F
WINONA         CLOUDY    55  52  88 CALM      29.72F
AUSTIN         SUNNY     57  48  72 CALM      29.71F
PRESTON        PTSUNNY   55  48  77 S3        29.74S
$$
ABBREVIATIONS USED IN REMARKS
   TC - TEMPERATURES IN CELSIUS
  WCI - WIND CHILL INDEX
   HX - HEAT INDEX
  VSB - VISIBILITY
$$




USA.gov is the U.S. government's official web portal to all federal, state and local government web resources and services.